Hourly Data Report for October 03, 2014

All times are specified in Local Standard Time (LST). Add 1 hour to adjust for Daylight Saving Time where and when it is observed.

GJOA HAVEN A
NUNAVUT

68°38'08.000" N
95°51'01.000" W
46.90 m
2302337
71597
YHK

Download Data

Hourly Data (October 2014)
Hourly Data Report for October 3, 2014
Temp Definition
°C
Dew Point Temp Definition
°C
Rel Hum Definition
%
Wind Dir Definition
10's deg

Wind Spd Definition
km/h
Visibility Definition
km
Stn Press Definition
kPa
Hmdx Definition


Wind Chill Definition


Weather Definition


TIME
00:00 Legend Double Dagger -8.9 -10.1 91 36 24 16.1 101.11   -17 LegendNANA
01:00 Legend Double Dagger -8.8 -9.9 92 36 22 16.1 101.14   -17 LegendNANA
02:00 Legend Double Dagger -7.9 -8.8 93 2 21 16.1 101.15   -15 LegendNANA
03:00 Legend Double Dagger -7.0 -8.1 92 2 15 16.1 101.18   -13 LegendNANA
04:00 Legend Double Dagger -5.0 -7.0 86 5 21 16.1 101.19   -12 LegendNANA
05:00 Legend Double Dagger -4.9 -7.0 85 4 22 16.1 101.21   -12 LegendNANA
06:00 Legend Double Dagger -4.7 -6.7 86 4 22 16.1 101.24   -12 LegendNANA
07:00 Legend Double Dagger -4.5 -6.3 87 4 22 16.1 101.26   -11 LegendNANA
08:00 Legend Double Dagger -4.4 -6.6 85 4 18 16.1 101.27   -10 LegendNANA
09:00 Legend Double Dagger -4.4 -6.4 86 3 17 16.1 101.32   -10 LegendNANA
10:00 Legend Double Dagger -4.3 -6.2 87 4 15 16.1 101.32   -10 LegendNANA
11:00 Legend Double Dagger -4.6 -6.8 85 1 17 16.1 101.35   -10 LegendNANA
12:00 Legend Double Dagger -4.6 -6.6 86 2 11 16.1 101.38   -9 LegendNANA
13:00 Legend Double Dagger -4.6 -6.7 86 36 15 16.1 101.38   -10 LegendNANA
14:00 Legend Double Dagger -4.6 -6.5 87 35 11 16.1 101.41   -9 LegendNANA
15:00 Legend Double Dagger -4.7 -6.6 87 35 11 16.1 101.43   -9 LegendNANA
16:00 Legend Double Dagger -4.9 -6.4 89 35 15 16.1 101.42   -10 LegendNANA
17:00 Legend Double Dagger -5.0 -6.4 90 34 11 16.1 101.47   -10 LegendNANA
18:00 Legend Double Dagger -5.2 -6.6 90 34 11 16.1 101.47   -10 LegendNANA
19:00 Legend Double Dagger -5.3 -6.5 91 36 9 16.1 101.45   -9 LegendNANA
20:00 Legend Double Dagger -5.5 -6.5 93 35 11 16.1 101.41   -10 LegendNANA
21:00 Legend Double Dagger -5.8 -6.8 93 35 9 16.1 101.39   -10 LegendNANA
22:00 Legend Double Dagger -5.8 -6.9 92 35 9 16.1 101.38   -10 LegendNANA
23:00 Legend Double Dagger -5.9 -6.9 92 35 11 16.1 101.39   -11 LegendNANA

Notes on Data Quality.

Legend

  • E = Estimated
  • M = Missing
  • NA = Not Available
  • ‡ = Partner data that is not subject to review by the National Climate Archives
Date modified: